QPF
0.00 0.00 0.00 0.00 0.00 0.00 0.00 0.00 0.00 0.00 0.00 0.00 0.00 0.00 0.00 0.00 0.00 0.00 0.00 0.00 0.00 0.00 0.00 0.00 0.00 0.00 0.00 0.00 0.00 0.00 0.00 0.00 0.00 0.00 0.00 0.00 0.00 0.00 0.00 0.00 0.00 0.00 0.00 0.00 0.00 0.00 0.00 0.00 0.00 0.00 0.00 0.00 0.00 0.00
0.00 0.00 0.00 0.00 0.00 0.00 0.00 0.00 0.01 0.00 0.00 0.00 0.00 0.00 0.00 0.00 0.00 0.00 0.00 0.00 0.00 0.00 0.00 0.00 0.00 0.00 0.00 0.00 0.00 0.00 0.00 0.00 0.00 0.00 0.00 0.00 0.00 0.00 0.00 0.00 0.00 0.00 0.00 0.00 0.00 0.00 0.00 0.00 0.00 0.00 0.00 0.00 0.00 0.00
0.00 0.00 0.00 0.00 0.00 0.00 0.00 0.01 0.01 0.01 0.00 0.00 0.00 0.00 0.00 0.00 0.00 0.00 0.00 0.00 0.00 0.00 0.00 0.00 0.00 0.00 0.00 0.00 0.00 0.00 0.00 0.00 0.00 0.00 0.00 0.00 0.00 0.00 0.00 0.00 0.00 0.00 0.00 0.00 0.00 0.00 0.00 0.00 0.00 0.00 0.00 0.00 0.00 0.00
0.00 0.00 0.00 0.00 0.00 0.00 0.00 0.00 0.00 0.01 0.00 0.01 0.01 0.00 0.00 0.00 0.00 0.00 0.00 0.00 0.00 0.00 0.00 0.00 0.00 0.00 0.00 0.00 0.00 0.00 0.00 0.00 0.00 0.00 0.00 0.00 0.00 0.00 0.00 0.00 0.00 0.00 0.00 0.00 0.00 0.00 0.00 0.00 0.00 0.00 0.00 0.00 0.00 0.00
0.00 0.00 0.00 0.00 0.00 0.00 0.00 0.00 0.00 0.01 0.00 0.00 0.01 0.01 0.00 0.00 0.00 0.00 0.00 0.00 0.00 0.00 0.00 0.00 0.00 0.00 0.00 0.00 0.00 0.00 0.00 0.00 0.00 0.00 0.00 0.00 0.00 0.00 0.00 0.00 0.00 0.00 0.00 0.00 0.00 0.00 0.00 0.00 0.00 0.00 0.00 0.00 0.00 0.00
0.00 0.00 0.00 0.00 0.00 0.00 0.00 0.00 0.00 0.00 0.01 0.00 0.01 0.00 0.00 0.00 0.00 0.00 0.00 0.00 0.00 0.00 0.00 0.00 0.00 0.00 0.00 0.00 0.00 0.00 0.00 0.00 0.00 0.00 0.00 0.00 0.00 0.00 0.00 0.00 0.00 0.00 0.00 0.00 0.00 0.00 0.00 0.00 0.00 0.00 0.00 0.00 0.00 0.00
0.00 0.00 0.00 0.00 0.01 0.00 0.00 0.00 0.01 0.01 0.02 0.03 0.02 0.00 0.00 0.00 0.00 0.00 0.00 0.00 0.00 0.00 0.00 0.00 0.00 0.00 0.00 0.00 0.00 0.00 0.00 0.00 0.00 0.00 0.00 0.00 0.00 0.00 0.00 0.00 0.00 0.00 0.00 0.00 0.00 0.00 0.00 0.00 0.00 0.00 0.00 0.00 0.00 0.00
0.00 0.00 0.00 0.00 0.01 0.01 0.00 0.01 0.01 0.01 0.01 0.00 0.00 0.00 0.00 0.00 0.00 0.00 0.00 0.00 0.00 0.00 0.00 0.00 0.00 0.00 0.00 0.00 0.00 0.00 0.00 0.00 0.00 0.00 0.00 0.00 0.00 0.00 0.00 0.00 0.00 0.00 0.00 0.00 0.00 0.00 0.00 0.00 0.00 0.00 0.00 0.00 0.00 0.00
0.00 0.00 0.00 0.00 0.01 0.02 0.01 0.01 0.00 0.00 0.00 0.00 0.00 0.00 0.00 0.00 0.00 0.00 0.00 0.00 0.00 0.00 0.00 0.01 0.00 0.01 0.00 0.00 0.00 0.01 0.01 0.00 0.02 0.01 0.00 0.00 0.00 0.00 0.00 0.00 0.00 0.00 0.00 0.00 0.00 0.00 0.00 0.00 0.00 0.00 0.00 0.00 0.00 0.00
0.00 0.00 0.00 0.00 0.00 0.00 0.00 0.01 0.01 0.00 0.00 0.00 0.00 0.01 0.01 0.00 0.00 0.00 0.01 0.00 0.00 0.00 0.00 0.00 0.00 0.00 0.00 0.00 0.00 0.02 0.03 0.01 0.02 0.00 0.00 0.00 0.00 0.00 0.00 0.00 0.00 0.00 0.00 0.00 0.00 0.00 0.00 0.00 0.00 0.00 0.00 0.00 0.00 0.00
0.00 0.00 0.00 0.00 0.00 0.00 0.00 0.00 0.00 0.00 0.01 0.01 0.02 0.01 0.02 0.00 0.01 0.02 0.02 0.01 0.00 0.01 0.00 0.00 0.00 0.00 0.00 0.01 0.04 0.02 0.03 0.01 0.01 0.00 0.01 0.00 0.00 0.00 0.00 0.00 0.00 0.00 0.00 0.00 0.00 0.00 0.00 0.00 0.00 0.00 0.00 0.00 0.00 0.00
0.00 0.00 0.00 0.00 0.00 0.00 0.00 0.00 0.00 0.02 0.02 0.00 0.00 0.00 0.00 0.00 0.02 0.02 0.02 0.01 0.00 0.00 0.00 0.00 0.00 0.00 0.00 0.00 0.07 0.07 0.03 0.03 0.00 0.01 0.01 0.00 0.00 0.00 0.00 0.00 0.00 0.00 0.00 0.00 0.00 0.00 0.00 0.00 0.00 0.00 0.00 0.00 0.00 0.00
0.00 0.00 0.00 0.00 0.00 0.00 0.00 0.00 0.00 0.00 0.00 0.00 0.01 0.02 0.02 0.01 0.01 0.00 0.01 0.01 0.01 0.02 0.02 0.00 0.02 0.00 0.00 0.00 0.03 0.11 0.02 0.01 0.01 0.01 0.00 0.00 0.00 0.00 0.00 0.00 0.00 0.00 0.00 0.00 0.00 0.00 0.00 0.00 0.00 0.00 0.00 0.00 0.00 0.00
0.00 0.00 0.00 0.00 0.00 0.00 0.00 0.00 0.00 0.00 0.00 0.01 0.01 0.01 0.02 0.01 0.01 0.00 0.00 0.00 0.05 0.11 0.06 0.01 0.01 0.06 0.01 0.01 0.05 0.06 0.00 0.01 0.00 0.00 0.00 0.00 0.00 0.00 0.00 0.00 0.00 0.00 0.00 0.00 0.00 0.00 0.00 0.00 0.00 0.00 0.00 0.00 0.00 0.00
0.00 0.00 0.00 0.00 0.00 0.00 0.00 0.00 0.00 0.00 0.01 0.01 0.02 0.01 0.01 0.00 0.00 0.01 0.01 0.01 0.01 0.02 0.02 0.02 0.01 0.08 0.06 0.04 0.05 0.06 0.05 0.00 0.00 0.00 0.00 0.00 0.01 0.01 0.01 0.00 0.00 0.00 0.00 0.00 0.00 0.00 0.00 0.00 0.00 0.00 0.00 0.00 0.00 0.00
0.00 0.00 0.00 0.00 0.00 0.00 0.00 0.00 0.00 0.01 0.01 0.01 0.01 0.01 0.01 0.01 0.00 0.00 0.01 0.01 0.01 0.01 0.01 0.01 0.01 0.05 0.06 0.01 0.02 0.03 0.02 0.00 0.00 0.00 0.00 0.00 0.05 0.08 0.04 0.01 0.00 0.00 0.00 0.00 0.00 0.00 0.00 0.00 0.00 0.01 0.00 0.00 0.00 0.00
0.00 0.00 0.00 0.00 0.00 0.00 0.00 0.01 0.01 0.01 0.01 0.01 0.01 0.01 0.01 0.01 0.00 0.00 0.00 0.00 0.00 0.01 0.01 0.01 0.02 0.03 0.04 0.00 0.00 0.03 0.05 0.05 0.03 0.03 0.02 0.03 0.04 0.04 0.06 0.10 0.03 0.00 0.00 0.00 0.00 0.00 0.00 0.00 0.00 0.00 0.00 0.00 0.00 0.00
0.00 0.00 0.00 0.00 0.00 0.00 0.00 0.00 0.01 0.01 0.00 0.00 0.00 0.00 0.00 0.00 0.00 0.00 0.00 0.00 0.01 0.03 0.03 0.02 0.03 0.06 0.04 0.01 0.00 0.03 0.05 0.02 0.01 0.01 0.02 0.04 0.02 0.05 0.11 0.04 0.04 0.01 0.00 0.00 0.00 0.00 0.01 0.01 0.00 0.00 0.00 0.00 0.00 0.00
0.00 0.00 0.00 0.00 0.00 0.00 0.00 0.01 0.01 0.00 0.00 0.00 0.00 0.00 0.00 0.00 0.00 0.00 0.01 0.03 0.04 0.09 0.08 0.06 0.04 0.04 0.02 0.01 0.01 0.04 0.05 0.03 0.04 0.02 0.02 0.01 0.01 0.08 0.12 0.17 0.21 0.08 0.03 0.03 0.02 0.01 0.01 0.01 0.00 0.00 0.00 0.00 0.00 0.00
0.00 0.00 0.00 0.00 0.00 0.00 0.00 0.00 0.00 0.00 0.00 0.00 0.00 0.00 0.00 0.00 0.00 0.02 0.01 0.03 0.05 0.05 0.05 0.05 0.05 0.03 0.01 0.01 0.01 0.04 0.07 0.06 0.03 0.02 0.00 0.00 0.03 0.08 0.10 0.20 0.21 0.15 0.05 0.03 0.01 0.00 0.00 0.00 0.00 0.00 0.00 0.00 0.00 0.00
0.00 0.00 0.00 0.00 0.00 0.00 0.00 0.00 0.00 0.00 0.00 0.00 0.00 0.00 0.00 0.04 0.02 0.03 0.02 0.00 0.01 0.01 0.03 0.01 0.01 0.00 0.01 0.02 0.02 0.03 0.06 0.07 0.05 0.03 0.00 0.00 0.02 0.02 0.08 0.12 0.07 0.04 0.04 0.02 0.01 0.00 0.00 0.00 0.00 0.00 0.00 0.00 0.00 0.00
0.00 0.00 0.00 0.00 0.00 0.00 0.00 0.00 0.00 0.00 0.00 0.00 0.00 0.00 0.00 0.03 0.01 0.01 0.02 0.01 0.00 0.00 0.00 0.00 0.00 0.00 0.05 0.03 0.03 0.03 0.04 0.06 0.05 0.02 0.01 0.01 0.04 0.03 0.04 0.02 0.01 0.00 0.00 0.00 0.00 0.00 0.00 0.00 0.00 0.00 0.00 0.00 0.00 0.00
0.00 0.00 0.00 0.00 0.00 0.00 0.00 0.00 0.00 0.00 0.00 0.00 0.00 0.00 0.00 0.01 0.02 0.02 0.02 0.00 0.00 0.00 0.00 0.00 0.00 0.01 0.03 0.03 0.02 0.02 0.04 0.05 0.02 0.02 0.02 0.01 0.02 0.02 0.01 0.00 0.00 0.00 0.00 0.00 0.00 0.00 0.00 0.00 0.00 0.00 0.00 0.00 0.00 0.00
0.00 0.00 0.00 0.00 0.00 0.00 0.00 0.00 0.00 0.00 0.00 0.00 0.01 0.00 0.00 0.01 0.00 0.00 0.00 0.00 0.00 0.00 0.00 0.01 0.01 0.02 0.02 0.02 0.02 0.02 0.02 0.02 0.02 0.02 0.02 0.02 0.00 0.00 0.00 0.00 0.00 0.00 0.00 0.00 0.00 0.00 0.00 0.00 0.00 0.00 0.00 0.00 0.00 0.00
0.00 0.00 0.00 0.00 0.01 0.01 0.00 0.00 0.00 0.01 0.01 0.00 0.00 0.00 0.00 0.01 0.00 0.00 0.00 0.00 0.00 0.00 0.00 0.00 0.01 0.01 0.01 0.01 0.01 0.01 0.01 0.01 0.01 0.01 0.01 0.01 0.01 0.00 0.00 0.00 0.00 0.00 0.00 0.00 0.00 0.00 0.00 0.00 0.00 0.00 0.00 0.00 0.00 0.00
0.00 0.00 0.00 0.00 0.00 0.00 0.00 0.00 0.00 0.01 0.00 0.00 0.00 0.00 0.00 0.00 0.00 0.00 0.00 0.00 0.00 0.00 0.00 0.00 0.00 0.00 0.00 0.01 0.01 0.00 0.00 0.00 0.00 0.00 0.00 0.00 0.00 0.00 0.00 0.00 0.00 0.00 0.00 0.00 0.00 0.00 0.00 0.00 0.00 0.00 0.00 0.00 0.00 0.00
0.00 0.00 0.00 0.00 0.00 0.00 0.00 0.01 0.01 0.01 0.01 0.01 0.01 0.01 0.00 0.00 0.00 0.00 0.00 0.00 0.00 0.00 0.00 0.00 0.00 0.00 0.00 0.00 0.00 0.00 0.00 0.00 0.00 0.00 0.00 0.00 0.00 0.00 0.00 0.00 0.00 0.00 0.00 0.00 0.00 0.00 0.00 0.00 0.00 0.00 0.00 0.00 0.00 0.00
0.00 0.00 0.01 0.01 0.00 0.00 0.01 0.03 0.03 0.02 0.01 0.01 0.01 0.00 0.00 0.00 0.00 0.00 0.00 0.00 0.00 0.00 0.00 0.00 0.00 0.00 0.00 0.00 0.00 0.00 0.00 0.00 0.00 0.00 0.00 0.00 0.00 0.00 0.00 0.00 0.00 0.00 0.00 0.00 0.00 0.00 0.00 0.00 0.00 0.00 0.00 0.00 0.00 0.00
0.00 0.01 0.02 0.04 0.02 0.02 0.02 0.01 0.01 0.01 0.00 0.00 0.00 0.00 0.00 0.00 0.00 0.00 0.00 0.00 0.00 0.00 0.00 0.00 0.00 0.00 0.00 0.00 0.00 0.00 0.00 0.00 0.00 0.00 0.00 0.00 0.00 0.00 0.00 0.00 0.00 0.00 0.00 0.00 0.00 0.00 0.00 0.00 0.00 0.00 0.00 0.00 0.00 0.00
0.00 0.00 0.02 0.02 0.00 0.01 0.00 0.00 0.00 0.00 0.00 0.00 0.00 0.00 0.00 0.00 0.00 0.00 0.00 0.00 0.00 0.00 0.00 0.00 0.00 0.00 0.00 0.00 0.00 0.00 0.00 0.00 0.00 0.00 0.00 0.00 0.00 0.00 0.00 0.00 0.00 0.00 0.00 0.00 0.00 0.00 0.00 0.00 0.00 0.00 0.00 0.00 0.00 0.00
0.00 0.00 0.01 0.01 0.01 0.00 0.00 0.00 0.00 0.00 0.00 0.00 0.00 0.00 0.00 0.00 0.00 0.00 0.00 0.00 0.00 0.00 0.00 0.00 0.00 0.00 0.00 0.00 0.00 0.00 0.00 0.00 0.00 0.00 0.00 0.00 0.00 0.00 0.00 0.00 0.00 0.00 0.00 0.00 0.00 0.00 0.00 0.00 0.00 0.00 0.00 0.00 0.00 0.00
0.00 0.01 0.01 0.01 0.00 0.00 0.00 0.00 0.00 0.00 0.00 0.00 0.00 0.00 0.00 0.00 0.00 0.00 0.00 0.00 0.00 0.00 0.00 0.00 0.00 0.00 0.00 0.00 0.00 0.00 0.00 0.00 0.00 0.00 0.00 0.00 0.00 0.00 0.00 0.00 0.00 0.00 0.00 0.00 0.00 0.00 0.00 0.00 0.00 0.00 0.00 0.00 0.00 0.00
0.00 0.00 0.00 0.00 0.00 0.00 0.00 0.00 0.00 0.00 0.00 0.00 0.00 0.00 0.00 0.00 0.00 0.00 0.00 0.00 0.00 0.00 0.00 0.00 0.00 0.00 0.00 0.00 0.00 0.00 0.00 0.00 0.00 0.00 0.00 0.00 0.00 0.00 0.00 0.00 0.00 0.00 0.00 0.00 0.00 0.00 0.00 0.00 0.00 0.00 0.00 0.00 0.00 0.00
MSLP
1019.82 1019.61 1019.41 1019.14 1018.85 1018.61 1018.28 1017.99 1017.74 1017.57 1017.37 1017.13 1016.91 1016.68 1016.49 1016.22 1015.74 1015.00 1012.07 1012.08 1011.26 1008.55 1006.25 1006.41 1005.95 1005.09 1004.10 1003.40 1001.67 1001.99 1001.55 1000.48 999.01 998.36 996.62 995.11 994.06 993.70 993.77 994.09 994.58 994.78 995.12 994.75 994.94 994.73 994.56 994.77 996.13 996.45 996.54 996.93 997.49 998.43
1019.71 1019.44 1019.19 1018.94 1018.66 1018.36 1018.05 1017.69 1017.56 1017.34 1017.21 1016.98 1016.74 1016.60 1016.39 1016.25 1015.88 1015.38 1012.23 1011.88 1011.85 1010.68 1007.73 1007.79 1007.32 1006.78 1006.37 1005.84 1004.63 1002.94 1002.07 1001.38 1000.38 999.04 997.60 996.05 994.79 994.04 993.90 993.39 994.12 994.53 994.42 994.34 994.48 994.24 994.53 995.26 995.52 996.32 996.30 997.36 998.21 998.98
1019.49 1019.28 1019.03 1018.73 1018.44 1018.16 1017.89 1017.60 1017.41 1017.26 1017.09 1016.91 1016.66 1016.49 1016.33 1016.24 1016.05 1015.73 1013.60 1012.51 1011.58 1010.06 1007.77 1006.66 1005.96 1005.70 1006.20 1006.35 1006.14 1004.92 1003.09 1002.84 1002.31 1002.25 1000.51 998.53 997.33 996.06 994.10 993.32 993.84 994.19 994.22 993.66 993.96 994.71 994.72 995.18 995.45 996.26 996.69 997.58 998.52 999.45
1019.29 1019.02 1018.77 1018.49 1018.17 1017.91 1017.64 1017.41 1017.26 1017.15 1017.02 1016.87 1016.57 1016.45 1016.23 1016.15 1016.10 1015.92 1013.78 1012.58 1012.27 1010.64 1008.07 1004.89 1005.31 1005.57 1005.70 1005.52 1005.84 1005.64 1005.11 1004.36 1003.66 1003.14 1001.68 999.84 998.26 997.72 995.58 994.51 993.64 993.28 994.37 994.09 994.64 994.83 995.12 995.31 995.91 996.50 997.00 997.92 998.91 999.97
1019.01 1018.72 1018.49 1018.29 1018.03 1017.75 1017.53 1017.30 1017.16 1017.00 1016.85 1016.78 1016.68 1016.47 1016.27 1016.14 1016.00 1015.46 1013.86 1012.87 1012.72 1012.18 1009.03 1006.34 1005.55 1005.17 1005.22 1005.14 1005.50 1005.70 1005.61 1005.15 1004.47 1003.45 1002.13 1000.54 999.43 998.76 997.68 996.42 994.28 993.99 993.91 994.00 994.11 995.49 995.29 995.57 996.31 996.80 997.44 998.51 999.54 1000.75
1018.77 1018.52 1018.28 1018.06 1017.85 1017.58 1017.31 1017.07 1016.89 1016.74 1016.64 1016.59 1016.59 1016.52 1016.45 1016.28 1015.90 1014.34 1012.25 1012.81 1012.98 1012.65 1010.87 1007.11 1004.87 1004.74 1004.24 1004.79 1005.25 1005.28 1005.32 1005.13 1004.74 1003.63 1002.55 1001.13 999.85 1000.25 998.05 996.04 995.32 993.96 994.28 994.59 994.37 994.44 995.37 995.60 996.94 997.40 998.39 999.33 1000.48 1001.56
1018.66 1018.39 1018.15 1017.91 1017.64 1017.35 1017.07 1016.85 1016.59 1016.57 1016.24 1016.46 1016.63 1016.62 1016.50 1016.39 1015.74 1014.49 1014.49 1014.81 1014.58 1013.06 1011.12 1007.87 1004.84 1004.24 1004.52 1004.38 1004.35 1004.64 1004.98 1004.77 1004.51 1003.90 1003.14 1001.78 1000.50 1000.80 999.22 996.92 995.76 995.01 994.68 995.38 995.73 995.38 995.57 996.23 996.91 997.80 999.04 1000.25 1001.68 1002.83
1018.50 1018.26 1018.01 1017.82 1017.50 1016.98 1016.98 1016.95 1016.86 1016.79 1016.74 1016.74 1016.76 1016.67 1016.47 1016.26 1015.71 1014.59 1013.61 1015.08 1014.91 1013.34 1011.79 1008.81 1005.49 1004.54 1004.16 1003.72 1003.56 1003.86 1004.00 1004.30 1004.23 1003.79 1003.30 1002.02 1000.94 1000.27 999.02 997.77 996.93 995.75 995.22 995.68 996.35 995.55 995.95 996.70 997.63 998.58 999.77 1001.02 1002.43 1003.87
1018.40 1018.22 1018.03 1017.82 1017.60 1017.29 1017.11 1017.04 1016.99 1016.92 1016.82 1016.73 1016.68 1016.57 1016.19 1015.77 1013.96 1014.54 1014.97 1015.27 1015.18 1015.35 1013.17 1009.96 1005.74 1003.59 1003.69 1003.28 1003.12 1003.28 1003.43 1003.37 1003.62 1002.86 1002.93 1002.16 1000.33 998.99 998.75 998.46 997.37 996.87 996.35 996.16 996.27 995.91 996.07 997.01 998.09 999.30 1000.58 1001.94 1003.44 1005.03
1018.32 1018.13 1017.90 1017.71 1017.56 1017.40 1017.19 1017.01 1016.87 1016.80 1016.72 1016.60 1016.30 1015.73 1014.93 1015.23 1015.45 1015.21 1015.11 1014.22 1014.38 1013.80 1013.71 1010.97 1007.44 1005.52 1004.47 1003.21 1002.70 1003.15 1003.56 1003.00 1001.95 1001.97 1002.17 1000.96 999.58 998.85 998.72 998.51 998.17 998.10 997.62 996.87 996.40 996.37 996.63 997.60 998.74 1000.22 1001.46 1003.10 1004.89 1005.72
1018.22 1017.95 1017.71 1017.52 1017.39 1017.27 1017.13 1016.97 1016.83 1016.76 1016.77 1016.17 1015.71 1015.28 1015.12 1015.46 1015.05 1014.88 1012.93 1012.01 1011.43 1011.39 1010.92 1009.11 1007.69 1005.80 1005.06 1004.24 1003.51 1003.04 1002.99 1002.62 1001.44 1000.85 1000.35 999.36 998.64 998.30 998.63 998.36 998.42 998.36 997.93 997.21 996.76 996.37 996.95 997.94 999.42 1000.81 1002.30 1004.20 1005.62 1006.56
1018.16 1017.90 1017.68 1017.40 1017.12 1016.98 1016.96 1016.84 1016.74 1016.65 1015.91 1016.16 1016.13 1015.27 1014.94 1014.62 1014.20 1013.20 1011.34 1010.19 1009.54 1008.26 1006.69 1006.56 1006.20 1006.29 1005.31 1005.45 1005.07 1004.40 1003.45 1002.20 1000.20 999.51 998.88 997.60 997.27 997.57 998.00 998.17 998.21 998.07 997.70 997.14 996.70 996.61 997.71 999.16 1000.45 1001.91 1003.79 1005.18 1006.17 1007.36
1017.96 1017.69 1017.43 1017.15 1016.84 1016.71 1016.74 1016.73 1016.68 1016.52 1016.25 1014.90 1015.29 1014.91 1014.69 1014.55 1013.58 1012.22 1010.39 1009.17 1007.93 1007.13 1007.84 1007.44 1006.37 1005.86 1006.14 1005.89 1005.17 1004.79 1003.16 1001.35 1000.42 998.73 997.24 997.29 997.33 997.39 996.87 997.18 997.37 997.73 997.52 996.95 996.83 997.32 998.63 1000.09 1001.64 1003.50 1004.80 1005.74 1006.76 1007.79
1017.74 1017.49 1017.19 1016.95 1016.77 1016.66 1016.55 1016.35 1016.45 1016.35 1015.81 1014.55 1014.15 1013.91 1013.01 1011.60 1010.41 1009.08 1008.94 1007.66 1008.26 1008.44 1008.73 1008.91 1008.43 1007.51 1005.73 1005.54 1005.21 1004.33 1002.45 1000.89 999.52 998.05 997.10 997.14 996.78 996.55 996.69 997.18 997.38 997.32 997.07 996.96 997.26 998.37 999.88 1001.60 1003.22 1004.71 1005.72 1006.30 1007.07 1008.03
1017.34 1016.97 1016.68 1016.43 1016.47 1016.52 1016.53 1016.50 1016.43 1015.86 1015.08 1014.33 1013.68 1012.57 1011.03 1009.77 1009.41 1009.43 1009.60 1009.02 1008.66 1009.00 1009.35 1009.45 1009.62 1008.68 1006.59 1005.69 1004.71 1003.81 1002.06 999.90 998.27 997.46 997.15 996.52 996.34 996.64 997.02 997.26 997.17 997.16 996.97 997.56 998.69 999.94 1001.36 1002.82 1004.32 1005.29 1006.05 1006.72 1007.57 1008.42
1016.80 1016.26 1015.75 1015.99 1016.28 1016.37 1016.32 1016.27 1015.86 1015.54 1014.67 1013.63 1012.61 1011.49 1010.76 1010.62 1010.25 1010.10 1009.92 1009.86 1009.81 1010.34 1010.64 1010.55 1009.91 1008.77 1006.25 1004.41 1003.63 1002.55 1000.89 998.68 997.97 997.10 996.41 996.60 997.20 997.82 997.89 997.85 997.86 997.82 998.28 999.13 1000.25 1001.24 1002.63 1003.89 1004.55 1005.16 1006.03 1007.05 1008.07 1009.00
1016.57 1015.37 1015.32 1015.75 1016.08 1016.17 1016.22 1016.29 1015.97 1015.50 1014.41 1012.90 1011.82 1011.42 1011.47 1011.19 1010.89 1010.86 1010.92 1010.85 1011.10 1011.13 1010.65 1010.22 1009.31 1007.83 1005.27 1003.51 1002.23 1001.08 1000.46 999.86 999.30 998.84 997.64 996.34 997.31 997.99 998.46 998.72 998.66 998.86 999.44 1000.27 1001.49 1002.36 1003.22 1004.29 1005.16 1005.89 1006.70 1007.76 1008.63 1009.72
1015.36 1014.37 1014.96 1015.49 1015.71 1015.74 1016.07 1016.24 1015.97 1014.95 1013.86 1012.65 1011.98 1010.86 1010.72 1010.30 1009.94 1009.82 1009.76 1010.07 1010.74 1010.41 1009.78 1008.73 1007.63 1006.61 1004.39 1002.20 1001.26 1000.95 1001.08 1000.78 1000.66 1000.58 1000.24 999.63 999.23 999.41 999.67 999.83 999.94 1000.20 1000.96 1001.97 1002.73 1003.29 1004.12 1004.94 1005.72 1006.66 1007.58 1008.50 1009.44 1010.40
1014.69 1014.58 1015.16 1015.38 1015.42 1015.51 1015.54 1015.56 1015.45 1014.28 1012.93 1012.26 1011.33 1010.54 1010.12 1009.12 1008.65 1008.39 1008.57 1008.55 1008.66 1008.50 1007.78 1007.47 1007.03 1005.64 1003.95 1002.75 1002.40 1002.07 1001.97 1001.59 1001.86 1002.09 1001.83 1001.74 1001.51 1001.41 1001.48 1001.81 1001.96 1002.31 1002.63 1003.39 1003.76 1004.26 1004.93 1005.42 1006.17 1007.19 1008.14 1008.94 1009.63 1010.60
1014.45 1014.32 1014.42 1014.57 1014.97 1014.88 1014.69 1014.28 1014.42 1013.44 1012.00 1010.87 1010.34 1009.58 1008.59 1007.79 1007.16 1006.79 1006.63 1006.58 1006.73 1006.45 1006.43 1006.05 1005.41 1004.61 1004.10 1003.71 1003.69 1003.00 1002.95 1002.74 1002.86 1002.94 1002.60 1002.64 1002.81 1002.79 1003.07 1003.40 1003.64 1004.16 1004.23 1004.54 1005.12 1005.66 1006.36 1007.05 1007.68 1008.55 1008.76 1009.51 1010.15 1010.66
1013.61 1013.29 1013.84 1014.16 1014.50 1014.29 1013.50 1012.50 1012.54 1011.76 1010.81 1009.95 1009.01 1008.48 1007.52 1006.56 1006.31 1005.94 1005.94 1006.23 1006.11 1005.97 1005.59 1005.20 1004.45 1003.74 1003.76 1003.33 1003.27 1003.59 1003.28 1003.17 1003.26 1003.30 1003.21 1003.22 1003.50 1003.63 1003.95 1004.39 1004.61 1004.55 1004.39 1005.44 1005.99 1006.99 1007.26 1007.68 1008.10 1008.92 1009.53 1009.68 1010.09 1010.61
1012.67 1012.87 1012.91 1013.62 1013.58 1013.08 1012.65 1011.63 1011.39 1010.74 1010.41 1009.28 1008.66 1007.84 1006.96 1005.95 1005.77 1005.07 1005.38 1005.65 1005.76 1005.80 1005.44 1004.97 1004.20 1003.13 1002.53 1002.08 1002.43 1002.81 1003.15 1003.30 1003.46 1003.73 1003.97 1004.13 1004.18 1004.41 1004.76 1004.94 1005.53 1005.27 1005.69 1006.52 1007.09 1007.25 1007.54 1008.37 1009.14 1009.86 1009.75 1009.95 1010.37 1010.96
1012.84 1012.78 1012.58 1012.57 1012.43 1011.77 1010.66 1010.11 1010.19 1009.80 1009.42 1008.51 1007.98 1007.36 1006.74 1006.12 1005.43 1004.91 1005.15 1005.68 1005.63 1005.57 1005.12 1004.54 1003.93 1003.15 1002.74 1002.78 1002.95 1003.09 1003.16 1003.22 1003.54 1003.87 1004.07 1004.39 1004.76 1004.91 1005.12 1005.60 1006.12 1006.04 1006.94 1007.80 1007.04 1007.92 1008.37 1009.12 1009.62 1009.73 1010.13 1010.45 1010.85 1011.67
1012.65 1012.15 1011.56 1011.12 1011.02 1010.11 1009.32 1009.36 1009.33 1009.04 1008.60 1007.98 1007.56 1007.08 1006.72 1006.27 1006.01 1005.86 1005.80 1005.99 1005.93 1005.26 1004.64 1004.16 1003.97 1003.72 1003.58 1003.38 1003.09 1003.20 1003.37 1003.65 1004.13 1004.61 1004.69 1004.41 1004.69 1005.20 1005.70 1006.09 1006.14 1006.88 1006.96 1007.26 1007.51 1008.55 1009.27 1009.64 1009.98 1010.26 1010.50 1010.79 1011.30 1011.60
1012.12 1011.29 1011.17 1010.45 1009.44 1009.17 1008.84 1008.67 1008.50 1008.24 1007.99 1007.66 1007.33 1007.02 1006.50 1006.29 1006.28 1006.15 1006.48 1006.53 1006.12 1005.84 1005.38 1004.84 1004.49 1004.43 1004.31 1004.09 1003.58 1003.38 1003.50 1004.18 1004.86 1005.74 1006.61 1006.72 1006.88 1007.12 1007.69 1007.74 1007.69 1007.69 1007.82 1008.27 1008.75 1008.92 1009.37 1009.81 1009.95 1010.14 1010.37 1010.57 1010.98 1011.27
1011.02 1010.07 1010.39 1009.90 1009.65 1009.29 1008.97 1008.57 1008.30 1008.06 1007.82 1007.43 1007.21 1007.06 1006.88 1006.79 1006.79 1007.11 1007.34 1007.11 1006.80 1006.55 1006.09 1005.56 1005.24 1005.20 1004.83 1004.79 1004.11 1003.80 1003.88 1004.74 1005.54 1006.18 1007.27 1007.50 1007.58 1007.61 1008.04 1008.32 1008.78 1009.32 1009.37 1009.37 1009.31 1009.49 1009.59 1009.43 1009.68 1009.88 1010.15 1010.88 1011.23 1010.92
1009.94 1009.39 1009.54 1009.63 1009.37 1009.20 1008.54 1007.83 1007.77 1007.75 1007.46 1007.24 1007.18 1006.82 1006.91 1007.18 1007.62 1008.04 1007.90 1007.77 1007.47 1007.09 1006.61 1006.17 1005.86 1005.43 1005.68 1005.83 1005.47 1004.86 1004.90 1005.11 1005.24 1005.47 1005.73 1006.08 1006.63 1007.36 1007.82 1007.72 1007.45 1007.95 1008.61 1008.89 1009.14 1009.27 1009.32 1009.48 1009.66 1009.69 1010.30 1010.71 1010.96 1010.75
1008.64 1008.40 1008.07 1007.84 1007.93 1008.04 1007.49 1006.92 1006.71 1007.02 1007.11 1007.14 1007.03 1007.25 1007.50 1007.84 1008.06 1008.26 1008.36 1008.22 1008.11 1007.74 1007.40 1007.00 1006.83 1006.57 1006.13 1006.03 1006.01 1005.91 1005.48 1005.13 1005.16 1005.22 1005.15 1005.28 1005.70 1005.98 1006.19 1006.83 1007.45 1008.00 1007.82 1008.21 1008.56 1008.82 1009.10 1009.34 1009.64 1009.84 1010.18 1010.39 1010.72 1010.79
1007.27 1006.77 1006.94 1006.73 1006.69 1006.67 1006.37 1006.36 1006.41 1006.48 1006.79 1006.56 1006.56 1007.07 1007.49 1007.83 1008.03 1008.22 1008.64 1008.35 1008.23 1008.02 1007.81 1007.44 1006.91 1006.76 1006.74 1006.35 1005.81 1006.16 1006.19 1006.16 1005.91 1005.57 1005.44 1005.50 1005.75 1006.25 1006.85 1007.56 1007.87 1007.94 1008.34 1008.96 1009.71 1009.27 1009.18 1009.37 1009.76 1009.93 1010.06 1010.16 1010.29 1010.58
1006.00 1005.87 1005.90 1005.91 1005.96 1005.83 1005.85 1005.73 1005.53 1005.77 1005.67 1005.41 1005.60 1006.21 1006.90 1007.79 1008.40 1008.65 1008.65 1008.60 1008.44 1008.38 1008.18 1007.78 1006.98 1006.84 1006.54 1005.89 1006.01 1005.95 1005.70 1005.61 1005.60 1005.87 1005.75 1005.80 1006.26 1006.53 1006.92 1007.34 1007.47 1007.78 1008.34 1008.81 1009.17 1009.92 1010.36 1010.12 1010.43 1010.23 1010.24 1010.11 1010.34 1010.63
1005.36 1005.20 1005.31 1005.45 1005.80 1005.71 1005.27 1005.17 1005.26 1005.25 1005.11 1004.83 1004.92 1005.13 1005.61 1006.99 1008.08 1008.37 1008.37 1008.53 1008.62 1008.41 1008.21 1007.81 1006.85 1006.82 1006.44 1006.78 1006.73 1006.47 1006.58 1006.49 1006.21 1006.06 1005.97 1006.11 1006.49 1006.87 1007.07 1007.28 1007.42 1007.60 1008.05 1008.43 1008.87 1009.42 1009.82 1009.86 1009.96 1010.15 1010.23 1010.30 1010.25 1010.61
1005.12 1005.07 1004.91 1005.26 1005.63 1005.69 1005.50 1005.20 1004.84 1004.63 1004.58 1004.64 1004.40 1004.24 1004.37 1004.89 1005.70 1006.49 1007.55 1007.67 1007.79 1007.67 1007.24 1007.16 1007.01 1007.00 1006.90 1006.88 1006.67 1007.07 1007.33 1006.64 1006.77 1006.92 1006.89 1006.81 1007.22 1007.52 1007.67 1007.60 1007.78 1007.76 1008.07 1008.23 1008.57 1008.86 1009.33 1009.61 1009.55 1009.66 1009.81 1010.13 1010.35 1010.49
1004.84 1004.82 1004.73 1004.79 1005.04 1004.98 1004.63 1004.36 1004.24 1004.21 1004.13 1004.20 1004.25 1004.03 1004.03 1004.14 1004.73 1005.43 1005.91 1005.70 1005.62 1005.63 1005.78 1005.75 1005.89 1006.05 1006.26 1006.38 1006.37 1006.60 1006.98 1007.19 1007.86 1008.18 1008.33 1008.44 1008.58 1008.32 1007.92 1007.71 1007.83 1008.11 1008.34 1008.36 1008.55 1008.70 1009.23 1009.42 1009.37 1009.65 1009.79 1009.88 1010.04 1010.25
Thickness
5535 5530 5526 5522 5520 5518 5518 5518 5520 5522 5525 5528 5532 5537 5542 5548 5556 5568 5597 5601 5612 5637 5662 5668 5678 5686 5705 5716 5726 5734 5749 5763 5777 5772 5792 5812 5823 5834 5832 5834 5823 5822 5817 5828 5839 5829 5825 5889 5871 5847 5869 5882 5882 5877
5521 5516 5512 5509 5507 5505 5504 5506 5507 5511 5514 5517 5522 5527 5533 5538 5545 5555 5586 5593 5600 5610 5643 5656 5665 5678 5687 5697 5706 5733 5735 5744 5760 5774 5795 5813 5815 5833 5829 5817 5848 5818 5841 5840 5851 5852 5885 5886 5881 5886 5892 5876 5873 5870
5508 5502 5497 5494 5491 5489 5490 5492 5494 5498 5502 5506 5512 5517 5522 5527 5535 5542 5565 5580 5592 5608 5633 5648 5658 5676 5685 5691 5700 5703 5729 5740 5746 5759 5764 5779 5775 5806 5814 5836 5834 5848 5864 5858 5863 5866 5873 5879 5889 5887 5887 5878 5876 5873
5494 5487 5483 5479 5478 5477 5478 5479 5481 5484 5489 5494 5501 5507 5513 5518 5523 5531 5553 5569 5577 5594 5614 5649 5665 5666 5680 5689 5693 5701 5710 5727 5738 5746 5751 5770 5781 5805 5814 5834 5841 5855 5850 5850 5843 5858 5870 5874 5878 5880 5881 5879 5873 5868
5482 5476 5471 5466 5464 5463 5463 5465 5468 5472 5477 5482 5488 5494 5501 5508 5515 5524 5541 5556 5564 5573 5601 5628 5650 5661 5671 5680 5683 5690 5698 5705 5715 5726 5739 5753 5779 5782 5802 5813 5824 5849 5842 5838 5836 5854 5861 5865 5875 5879 5871 5864 5863 5854
5471 5464 5459 5454 5451 5450 5451 5454 5457 5461 5466 5472 5478 5483 5489 5498 5507 5526 5550 5549 5554 5563 5579 5610 5647 5653 5667 5671 5673 5679 5688 5696 5705 5716 5729 5752 5774 5763 5779 5796 5829 5859 5861 5862 5859 5875 5869 5873 5870 5872 5860 5857 5853 5846
5463 5456 5449 5443 5439 5439 5440 5443 5447 5451 5458 5463 5468 5474 5481 5488 5501 5521 5530 5528 5536 5554 5571 5601 5629 5648 5655 5662 5669 5674 5681 5688 5696 5704 5714 5734 5755 5754 5767 5778 5822 5843 5853 5849 5856 5859 5851 5860 5855 5863 5855 5848 5838 5833
5460 5452 5445 5437 5433 5434 5432 5432 5435 5441 5447 5453 5460 5467 5475 5483 5495 5514 5525 5520 5527 5545 5562 5587 5617 5632 5649 5649 5654 5671 5670 5677 5685 5694 5709 5720 5741 5748 5748 5786 5808 5830 5840 5836 5840 5858 5856 5857 5854 5849 5846 5836 5823 5814
5459 5451 5444 5436 5431 5429 5428 5428 5431 5436 5442 5448 5455 5462 5472 5484 5510 5508 5509 5513 5518 5522 5540 5573 5609 5624 5644 5647 5657 5661 5667 5662 5682 5685 5693 5708 5724 5729 5760 5771 5794 5811 5815 5823 5838 5848 5849 5843 5839 5836 5829 5820 5808 5796
5462 5454 5447 5441 5435 5431 5430 5431 5433 5437 5442 5448 5457 5469 5483 5484 5488 5496 5505 5518 5521 5530 5530 5550 5592 5602 5627 5640 5647 5648 5652 5656 5665 5683 5695 5697 5717 5752 5763 5773 5784 5793 5805 5821 5820 5822 5826 5825 5825 5820 5814 5807 5793 5788
5467 5461 5455 5449 5443 5439 5437 5437 5438 5441 5444 5455 5461 5470 5476 5479 5488 5494 5520 5531 5542 5542 5549 5565 5580 5597 5619 5620 5632 5649 5645 5654 5654 5674 5684 5698 5710 5743 5758 5767 5779 5790 5800 5812 5824 5833 5832 5826 5814 5807 5801 5790 5782 5776
5473 5468 5463 5459 5454 5450 5447 5446 5446 5448 5457 5458 5460 5471 5477 5482 5494 5507 5529 5543 5547 5558 5584 5582 5588 5593 5609 5616 5614 5626 5632 5648 5655 5692 5690 5700 5733 5747 5751 5760 5771 5783 5794 5805 5817 5819 5815 5809 5803 5794 5784 5775 5770 5763
5481 5476 5472 5469 5466 5462 5458 5455 5455 5456 5459 5471 5472 5474 5473 5479 5482 5493 5519 5535 5553 5568 5561 5568 5580 5594 5597 5606 5612 5615 5625 5643 5672 5678 5694 5708 5724 5737 5752 5761 5768 5777 5787 5798 5804 5806 5802 5794 5789 5778 5767 5765 5759 5751
5491 5486 5482 5478 5474 5470 5468 5467 5465 5464 5469 5479 5483 5485 5498 5515 5525 5538 5535 5551 5547 5548 5548 5547 5556 5568 5597 5598 5605 5606 5638 5656 5654 5667 5682 5707 5722 5737 5744 5754 5760 5768 5781 5789 5790 5789 5783 5774 5766 5759 5754 5752 5747 5738
5502 5499 5495 5491 5485 5479 5476 5472 5471 5473 5481 5484 5491 5500 5516 5533 5535 5534 5531 5539 5543 5542 5540 5541 5538 5556 5579 5586 5604 5615 5627 5641 5664 5673 5692 5714 5727 5733 5737 5745 5756 5764 5773 5775 5774 5770 5764 5759 5750 5744 5743 5741 5735 5728
5510 5510 5507 5499 5492 5487 5483 5479 5479 5481 5488 5497 5504 5514 5521 5518 5522 5525 5528 5529 5532 5528 5528 5531 5535 5544 5572 5595 5597 5610 5630 5653 5674 5693 5712 5718 5716 5719 5724 5736 5746 5756 5759 5759 5757 5755 5749 5742 5740 5739 5737 5729 5723 5715
5515 5521 5513 5504 5495 5489 5485 5481 5479 5482 5491 5507 5513 5517 5512 5511 5511 5512 5514 5518 5519 5519 5526 5532 5537 5554 5589 5596 5605 5630 5634 5652 5666 5677 5697 5724 5719 5719 5723 5724 5735 5741 5745 5745 5742 5740 5738 5735 5731 5726 5718 5714 5709 5701
5528 5529 5519 5509 5501 5496 5490 5485 5485 5493 5498 5509 5511 5519 5519 5520 5521 5526 5526 5525 5523 5527 5539 5548 5563 5565 5589 5608 5624 5643 5646 5654 5660 5666 5675 5692 5702 5707 5709 5717 5721 5728 5730 5727 5726 5727 5725 5720 5714 5709 5705 5701 5693 5686
5536 5532 5522 5514 5508 5505 5502 5498 5495 5503 5512 5514 5520 5527 5528 5537 5541 5543 5544 5547 5546 5552 5561 5563 5566 5580 5599 5619 5626 5635 5638 5647 5642 5646 5656 5665 5675 5684 5688 5693 5701 5706 5710 5710 5712 5712 5711 5711 5706 5698 5692 5688 5683 5677
5540 5538 5533 5526 5517 5516 5516 5517 5509 5517 5528 5540 5538 5543 5551 5560 5566 5570 5570 5572 5571 5576 5575 5577 5584 5593 5600 5607 5610 5620 5624 5632 5633 5635 5646 5655 5661 5668 5673 5677 5682 5685 5692 5695 5694 5693 5690 5685 5683 5678 5678 5673 5670 5667
5550 5549 5540 5533 5524 5522 5532 5540 5534 5540 5546 5553 5560 5561 5568 5575 5575 5578 5578 5576 5578 5579 5583 5587 5590 5594 5601 5610 5616 5620 5628 5631 5633 5640 5646 5652 5657 5662 5667 5669 5671 5675 5681 5682 5682 5674 5673 5669 5670 5667 5665 5668 5668 5666
5560 5553 5552 5541 5537 5538 5537 5547 5545 5551 5552 5562 5565 5570 5576 5585 5581 5591 5589 5585 5584 5582 5586 5590 5595 5607 5620 5629 5630 5629 5629 5633 5638 5640 5642 5644 5650 5655 5659 5664 5664 5666 5669 5666 5665 5667 5667 5664 5659 5653 5659 5662 5662 5657
5557 5556 5555 5552 5549 5552 5560 5562 5560 5563 5566 5573 5575 5578 5581 5584 5591 5600 5593 5587 5588 5589 5594 5601 5608 5618 5626 5630 5630 5633 5637 5641 5642 5643 5647 5648 5648 5652 5656 5657 5656 5661 5654 5651 5661 5657 5657 5652 5650 5653 5653 5652 5650 5643
5559 5561 5564 5567 5565 5568 5575 5569 5568 5570 5573 5579 5581 5582 5585 5587 5588 5591 5592 5591 5592 5597 5603 5611 5616 5622 5625 5629 5632 5634 5637 5639 5639 5639 5644 5653 5653 5652 5652 5653 5656 5652 5657 5657 5654 5646 5645 5644 5642 5642 5643 5642 5639 5637
5562 5568 5566 5568 5582 5577 5575 5576 5577 5578 5580 5583 5585 5586 5592 5594 5592 5594 5589 5594 5598 5602 5608 5616 5620 5622 5624 5627 5636 5638 5641 5637 5633 5628 5625 5628 5629 5632 5629 5631 5636 5642 5646 5642 5639 5641 5639 5639 5638 5639 5639 5640 5635 5633
5565 5577 5567 5571 5570 5569 5571 5572 5575 5578 5580 5584 5587 5589 5591 5591 5593 5591 5591 5595 5599 5603 5608 5615 5620 5620 5623 5627 5636 5639 5641 5639 5632 5625 5619 5621 5622 5623 5621 5620 5620 5622 5627 5632 5633 5631 5631 5635 5637 5637 5636 5630 5625 5632
5568 5577 5575 5572 5573 5570 5575 5584 5582 5581 5586 5588 5590 5596 5594 5593 5590 5590 5593 5596 5600 5604 5609 5614 5617 5618 5617 5619 5624 5633 5636 5636 5636 5636 5638 5637 5634 5627 5624 5624 5630 5635 5634 5632 5630 5630 5632 5633 5633 5634 5628 5626 5625 5627
5584 5585 5585 5591 5585 5583 5585 5590 5594 5588 5590 5593 5595 5591 5591 5590 5591 5592 5594 5597 5598 5603 5606 5610 5612 5616 5617 5616 5622 5626 5632 5641 5643 5644 5646 5646 5645 5646 5647 5644 5641 5636 5641 5639 5636 5635 5634 5632 5630 5629 5625 5623 5620 5620
5593 5600 5598 5595 5595 5594 5597 5595 5592 5596 5595 5595 5598 5596 5595 5596 5598 5598 5595 5598 5601 5604 5608 5611 5612 5619 5619 5621 5630 5628 5629 5630 5631 5633 5634 5635 5636 5638 5639 5636 5635 5636 5634 5630 5618 5628 5631 5629 5627 5624 5621 5619 5618 5614
5601 5609 5602 5603 5600 5599 5601 5605 5607 5608 5611 5613 5611 5608 5604 5597 5595 5596 5594 5597 5601 5602 5604 5609 5618 5618 5621 5629 5627 5631 5639 5641 5641 5636 5634 5635 5634 5640 5638 5636 5636 5635 5632 5628 5625 5618 5611 5616 5613 5614 5612 5611 5607 5603
5610 5611 5608 5607 5601 5606 5612 5615 5614 5615 5617 5619 5621 5618 5615 5604 5597 5598 5600 5600 5599 5603 5605 5609 5620 5621 5626 5621 5622 5626 5626 5633 5637 5640 5645 5642 5639 5637 5635 5635 5635 5634 5630 5626 5622 5616 5612 5611 5608 5604 5603 5601 5601 5596
5608 5608 5610 5604 5603 5609 5612 5611 5615 5617 5619 5618 5621 5629 5629 5626 5618 5617 5608 5608 5606 5608 5614 5614 5616 5618 5622 5624 5629 5626 5624 5631 5631 5632 5633 5634 5632 5631 5630 5630 5628 5628 5624 5621 5618 5615 5610 5606 5605 5603 5600 5596 5593 5591
5611 5614 5615 5614 5611 5611 5620 5622 5622 5621 5624 5622 5623 5629 5631 5631 5622 5624 5626 5631 5630 5629 5628 5630 5631 5631 5631 5630 5631 5630 5626 5627 5620 5615 5616 5615 5614 5618 5624 5626 5623 5619 5615 5614 5612 5610 5604 5601 5600 5597 5594 5593 5590 5587